User: anonymous   Login
Location: Burgerwiesen
(48.6500°N, 15.6167°E)
Time: 17:42:21
(UTC+00:00)
Language:

Abrixas rocket - Orbit

View from above orbital plane
View from above orbital plane
View from above satellite
View from above satellite

Ground track
Ground track

The orbit data is extracted from the following two-line orbital elements,

1 25723U 99022C   20195.79605669  .00010601  00000-0  73734-4 0  9992
2 25723  48.4093 219.4681 0003837 106.9153 253.2221 15.74910403182132
Epoch (UTC): 13 July 2020 19:06:19
Eccentricity: 0.0003837
inclination: 48.4093°
perigee height: 342 km
apogee height: 347 km
right ascension of ascending node: 219.4681°
argument of perigee: 106.9153°
revolutions per day: 15.74910403
mean anomaly at epoch: 253.2221°
orbit number at epoch: 18213

The dashed part of the orbit path shows where the satellite is in the earth's shadow,  

DLR